When you browse on this site, cookies collect data to enhance your experience and personalize the content and advertising you see.
Visit our Privacy Policy to learn more. By continuing to use the site, you agree to this use of cookies and data.
  • In Spain
  • List of Countries
  • For 7 days
  • Water Temperature
  • Weather Map
  • Weather Widgets
  • user-avatar
    Login

    Hourly Weather Bregenz

    Today, 4 April, Saturday

    Time Temperature Precipitation Wind Pressure Humidity
    00:00 -1°C° 0 mm 1 mps 645 mmHg 87%
    01:00 -2°C° 0 mm 1 mps 645 mmHg 88%
    02:00 -3°C° 0 mm 1 mps 645 mmHg 88%
    03:00 -3°C° 0 mm 1 mps 645 mmHg 88%
    04:00 -3°C° 0 mm 1 mps 645 mmHg 88%
    05:00 -3°C° 0 mm 1 mps 645 mmHg 86%
    06:00 -2°C° 0 mm 1 mps 646 mmHg 84%
    07:00 -1°C° 0 mm 1 mps 646 mmHg 82%
    08:00 +1°C° 0 mm 1 mps 647 mmHg 75%
    09:00 +3°C° 0 mm 1 mps 648 mmHg 69%
    10:00 +6°C° 0 mm 1 mps 648 mmHg 62%
    11:00 +7°C° 0 mm 1 mps 649 mmHg 59%
    12:00 +8°C° 0 mm 1 mps 649 mmHg 56%
    13:00 +9°C° 0 mm 1 mps 649 mmHg 53%
    14:00 +9°C° 0 mm 1 mps 649 mmHg 54%
    15:00 +9°C° 0 mm 1 mps 649 mmHg 55%
    16:00 +8°C° 0 mm 2 mps 648 mmHg 56%
    17:00 +7°C° 0 mm 1 mps 648 mmHg 65%
    18:00 +5°C° 0 mm 1 mps 648 mmHg 74%
    19:00 +3°C° 0 mm 1 mps 647 mmHg 84%
    20:00 +2°C° 0 mm 1 mps 647 mmHg 83%
    21:00 +1°C° 0 mm 1 mps 648 mmHg 82%
    22:00 -1°C° 0 mm 2 mps 648 mmHg 81%
    23:00 -2°C° 0 mm 2 mps 648 mmHg 80%

    Tomorrow, 5 April, Sunday

    Time Temperature Precipitation Wind Pressure Humidity
    00:00 -2°C° 0 mm 2 mps 648 mmHg 79%
    01:00 -3°C° 0 mm 2 mps 648 mmHg 78%
    02:00 -3°C° 0 mm 2 mps 648 mmHg 78%
    03:00 -3°C° 0 mm 2 mps 648 mmHg 79%
    04:00 -3°C° 0 mm 2 mps 648 mmHg 79%
    05:00 -3°C° 0 mm 2 mps 648 mmHg 78%
    06:00 -3°C° 0 mm 2 mps 648 mmHg 78%
    07:00 0°C° 0 mm 1 mps 648 mmHg 77%
    08:00 +2°C° 0 mm 1 mps 649 mmHg 70%
    09:00 +5°C° 0 mm 1 mps 650 mmHg 63%
    10:00 +8°C° 0 mm 1 mps 650 mmHg 56%
    11:00 +9°C° 0 mm 1 mps 650 mmHg 53%
    12:00 +11°C° 0 mm 1 mps 650 mmHg 50%
    13:00 +12°C° 0 mm 1 mps 651 mmHg 46%
    14:00 +12°C° 0 mm 1 mps 650 mmHg 47%
    15:00 +12°C° 0 mm 1 mps 650 mmHg 48%
    16:00 +12°C° 0 mm 1 mps 650 mmHg 48%
    17:00 +9°C° 0 mm 1 mps 649 mmHg 58%
    18:00 +7°C° 0 mm 1 mps 648 mmHg 68%
    19:00 +5°C° 0 mm 1 mps 648 mmHg 78%
    20:00 +3°C° 0 mm 2 mps 648 mmHg 78%
    21:00 +2°C° 0 mm 2 mps 648 mmHg 78%
    22:00 0°C° 0 mm 3 mps 648 mmHg 78%
    23:00 -1°C° 0 mm 3 mps 648 mmHg 77%

    Day after tomorrow, 6 April, Monday

    Time Temperature Precipitation Wind Pressure Humidity
    00:00 -1°C° 0 mm 3 mps 648 mmHg 76%
    01:00 -1°C° 0 mm 3 mps 648 mmHg 75%
    02:00 -1°C° 0 mm 2 mps 648 mmHg 75%
    03:00 -2°C° 0 mm 2 mps 648 mmHg 75%
    04:00 -2°C° 0 mm 2 mps 648 mmHg 74%
    05:00 -2°C° 0 mm 2 mps 648 mmHg 73%
    06:00 -1°C° 0 mm 2 mps 649 mmHg 71%
    07:00 -1°C° 0 mm 2 mps 649 mmHg 70%
    08:00 +3°C° 0 mm 2 mps 650 mmHg 62%
    09:00 +7°C° 0 mm 1 mps 650 mmHg 55%
    10:00 +10°C° 0 mm 1 mps 651 mmHg 47%
    11:00 +11°C° 0 mm 1 mps 651 mmHg 44%
    12:00 +12°C° 0 mm 1 mps 652 mmHg 42%
    13:00 +13°C° 0 mm 1 mps 652 mmHg 39%
    14:00 +13°C° 0 mm 1 mps 652 mmHg 41%
    15:00 +13°C° 0 mm 1 mps 652 mmHg 43%
    16:00 +13°C° 0 mm 1 mps 652 mmHg 44%
    17:00 +11°C° 0 mm 1 mps 651 mmHg 55%
    18:00 +8°C° 0 mm 1 mps 650 mmHg 66%
    19:00 +5°C° 0 mm 0 mps 650 mmHg 76%
    20:00 +5°C° 0 mm 1 mps 650 mmHg 77%
    21:00 +4°C° 0 mm 1 mps 651 mmHg 77%
    22:00 +4°C° 0 mm 1 mps 651 mmHg 77%
    23:00 +3°C° 0 mm 1 mps 651 mmHg 77%

    7 April, Tuesday

    Time Temperature Precipitation Wind Pressure Humidity
    00:00 +3°C° 0 mm 1 mps 651 mmHg 76%
    01:00 +3°C° 0 mm 1 mps 651 mmHg 75%
    02:00 +2°C° 0 mm 1 mps 651 mmHg 76%
    03:00 +2°C° 0 mm 1 mps 651 mmHg 77%
    04:00 +2°C° 0 mm 1 mps 651 mmHg 78%
    05:00 +3°C° 0 mm 1 mps 651 mmHg 78%
    06:00 +2°C° 0 mm 0 mps 652 mmHg 77%
    07:00 +3°C° 0 mm 0 mps 652 mmHg 77%
    08:00 +6°C° 0 mm 1 mps 652 mmHg 72%
    09:00 +8°C° 0 mm 1 mps 653 mmHg 67%
    10:00 +10°C° 0 mm 1 mps 653 mmHg 62%
    11:00 +11°C° 0 mm 1 mps 654 mmHg 59%
    12:00 +12°C° 0 mm 1 mps 654 mmHg 57%
    13:00 +13°C° 0 mm 2 mps 654 mmHg 54%
    14:00 +13°C° 0 mm 2 mps 654 mmHg 55%
    15:00 +13°C° 0 mm 2 mps 654 mmHg 55%
    16:00 +13°C° 0 mm 2 mps 653 mmHg 56%
    17:00 +10°C° 0 mm 2 mps 653 mmHg 65%
    18:00 +8°C° 0 mm 2 mps 652 mmHg 75%
    19:00 +7°C° 0 mm 1 mps 651 mmHg 85%
    20:00 +6°C° 0 mm 1 mps 652 mmHg 85%
    21:00 +5°C° 0 mm 1 mps 652 mmHg 86%
    22:00 +5°C° 0 mm 1 mps 652 mmHg 87%
    23:00 +4°C° 0 mm 1 mps 652 mmHg 86%

    8 April, Wednesday

    Time Temperature Precipitation Wind Pressure Humidity
    00:00 +4°C° 0 mm 1 mps 652 mmHg 84%
    01:00 +3°C° 0 mm 1 mps 652 mmHg 83%
    02:00 +3°C° 0 mm 1 mps 652 mmHg 82%
    03:00 +3°C° 0 mm 1 mps 651 mmHg 81%
    04:00 +2°C° 0 mm 1 mps 651 mmHg 80%
    05:00 +3°C° 0 mm 1 mps 651 mmHg 79%
    06:00 +3°C° 0 mm 1 mps 652 mmHg 78%
    07:00 +3°C° 0 mm 0 mps 652 mmHg 77%
    08:00 +6°C° 0 mm 1 mps 652 mmHg 72%
    09:00 +8°C° 0 mm 1 mps 653 mmHg 67%
    10:00 +10°C° 0 mm 1 mps 653 mmHg 61%
    11:00 +11°C° 0.1 mm 1 mps 653 mmHg 62%
    12:00 +11°C° 0.1 mm 1 mps 653 mmHg 62%
    13:00 +12°C° 0.1 mm 2 mps 653 mmHg 63%
    14:00 +12°C° 0.2 mm 2 mps 653 mmHg 64%
    15:00 +12°C° 0.2 mm 2 mps 652 mmHg 65%
    16:00 +12°C° 0.2 mm 2 mps 652 mmHg 66%
    17:00 +9°C° 0.1 mm 2 mps 651 mmHg 73%
    18:00 +8°C° 0.1 mm 1 mps 651 mmHg 79%
    19:00 +6°C° 0.1 mm 1 mps 650 mmHg 85%
    20:00 +6°C° 0 mm 1 mps 651 mmHg 86%
    21:00 +5°C° 0 mm 1 mps 651 mmHg 87%
    22:00 +4°C° 0 mm 1 mps 651 mmHg 88%
    23:00 +4°C° 0 mm 1 mps 651 mmHg 89%

    9 April, Thursday

    Time Temperature Precipitation Wind Pressure Humidity
    00:00 +3°C° 0 mm 1 mps 651 mmHg 89%
    01:00 +3°C° 0 mm 1 mps 651 mmHg 89%
    02:00 +3°C° 0 mm 1 mps 650 mmHg 90%
    03:00 +3°C° 0 mm 1 mps 650 mmHg 91%
    04:00 +1°C° 0 mm 0 mps 650 mmHg 91%
    05:00 +2°C° 0 mm 0 mps 650 mmHg 90%
    06:00 +3°C° 0 mm 0 mps 650 mmHg 88%
    07:00 +3°C° 0 mm 0 mps 651 mmHg 87%
    08:00 +6°C° 0 mm 1 mps 651 mmHg 80%
    09:00 +8°C° 0 mm 1 mps 651 mmHg 73%
    10:00 +10°C° 0 mm 1 mps 652 mmHg 66%
    11:00 +11°C° 0 mm 1 mps 652 mmHg 63%
    12:00 +12°C° 0 mm 2 mps 652 mmHg 59%
    13:00 +13°C° 0 mm 2 mps 652 mmHg 56%
    14:00 +13°C° 0 mm 2 mps 652 mmHg 56%
    15:00 +13°C° 0 mm 2 mps 651 mmHg 57%
    16:00 +12°C° 0 mm 3 mps 651 mmHg 57%
    17:00 +10°C° 0 mm 2 mps 651 mmHg 66%
    18:00 +9°C° 0 mm 1 mps 650 mmHg 75%
    19:00 +7°C° 0 mm 1 mps 649 mmHg 85%
    20:00 +6°C° 0 mm 1 mps 650 mmHg 86%
    21:00 +6°C° 0 mm 1 mps 650 mmHg 87%
    22:00 +5°C° 0 mm 1 mps 650 mmHg 88%
    23:00 +5°C° 0 mm 1 mps 650 mmHg 88%
    Show more